Weather in Torquay

United Kingdom     50°28′21″N   3°32′42″W
temp.,
°C
wind,
m/s
gust,
m/s
humid.,
%
clouds,
%
prec.,
mm/h
press.,
hPa
HPBL,
m
26 july, mon
mon2601:00+16wnw22883 0.2 101125
04:00+15nw33875 0.0 101152
07:00+15wnw23832 0.0 101176
10:00+19w127615 0.0 1011288
13:00+20wsw457874 1.8 1011488
16:00+21wsw6879100 4.0 1010421
19:00+19wsw5785100 5.3 1010171
22:00+17wsw2287100 0.7 101025
27 july, tue
tue2701:00+16wsw3489100 1.2 101058
04:00+16wsw3687100 0.1 1009168
07:00+15w369091 1.8 1009370
10:00+17wsw457620 0.0 1009503
13:00+19wsw787246 0.6 1009611
16:00+18w8107259 0.5 1008626
19:00+17w7117843 0.6 1008594
22:00+15w612865 0.0 1009585
28 july, wed
wed2801:00+15w511880 0.0 1010511
04:00+14wsw611890 0.0 1009470
07:00+14wsw6118644 0.0 1009518
10:00+17wsw7107126 0.0 1009778
13:00+18wsw9116611 0.8 1009863
16:00+18w9116415 0.4 1009892
19:00+17w7117120 0.4 1010795
22:00+14wsw611795 0.0 1011591
29 july, thu
thu2901:00+14wsw61180100 0.0 1011591
04:00+15wsw61082100 0.1 1010557
07:00+14w4984100 0.8 1010390
10:00+15wsw4676100 0.0 1010572
13:00+16sw5674100 0.3 1009722
16:00+14wsw71087100 4.6 1009636
19:00+15w610800 6.3 1009879
22:00+14wsw61286100 0.0 1009527
30 july, fri
fri3001:00+15w8138619 0.0 1009795
04:00+15wnw7128820 0.0 1009646
07:00+15wnw5108542 0.0 1011726
10:00+18wnw57717 0.0 1012589
13:00+19wnw576487 0.1 1011719
16:00+19wnw786636 0.6 1012666
19:00+18wnw69765 0.8 1012482
22:00+15w51185100 0.0 1013416